sat.trackr.live / text

‹ back to catalog

STARLINK-35580

NORAD 66155 · 2025-240K

PAYLOAD ACTIVE UNKNOWN

§ Identity

Operator
Country
US
Launch date
2025-10-25
Launch site
AFWTR
Launch vehicle
Mass (kg)
RCS (m²)

Purposes: comms

External: N2YO · Heavens-Above · Gunter

§ Orbital elements

Epoch: 2026-09-19T11:46:03.178848Z

Period
93.85 min
Inclination
53.1562°
Eccentricity
0.0001141
Mean motion
15.34406412 rev/d
Perigee alt
461.9 km
Apogee alt
463.5 km
Semi-major
6,840.8 km
B*
4.0279e-4
RAAN
238.1275°
Arg perigee
91.5805°
Mean anomaly
268.5328°
Rev number
5,172

§ Raw data

STARLINK-355801 66155U 25240K   26262.49031457  .00013260  00000+0  40279-3 0  99932 66155  53.1562 238.1275 0001141  91.5805 268.5328 15.34406412 51729

JSON: /api/v1/satellites/66155 · /tle

For live sub-satellite position, see the globe view (requires WebGL).

§ Visibility from observer

Set your observer location to see the next 7 days of passes ≥ 10°. The values pass through the URL so the page stays shareable.

No JS? Fill the form by hand. The geolocation button needs JavaScript.